Regional Weather Roundup
Issued by NWS Wilmington, NC

Current Version | Previous Version | Graphics & Text | Print | Product List | Glossary On
Versions: 1 2 3 4 5 6 7 8 9 10 11 12 13 14 15 16 17 18 19 20 21 22 23 24 25 26 27 28
000
ASUS42 KILM 100210
RWRILM
RWRILM
REGIONAL HOURLY WEATHER ROUNDUP
NATIONAL WEATHER SERVICE WILMINGTON NC
900 PM EST FRI DEC 09 2022

NOTE: "FAIR" INDICATES FEW OR NO CLOUDS BELOW 12,000 FEET WITH NO
SIGNIFICANT WEATHER AND/OR OBSTRUCTIONS TO VISIBILITY.

...............WFO WILMINGTON COUNTY WARNING AREA...............

......COASTAL NC AND SC COUNTIES......

CITY           SKY/WX    TMP DP  RH WIND       PRES   REMARKS
WILMINGTON     CLEAR     47  42  83 NE9       30.20S
N MYRTLE BEACH CLOUDY    53  45  74 NE9       30.19R
MYRTLE BEACH   CLOUDY    55  47  74 N6        30.19R

......INLAND NC AND SC COUNTIES.......

CITY           SKY/WX    TMP DP  RH WIND       PRES   REMARKS
LUMBERTON      CLOUDY    51  41  68 NE6       30.22R
ELIZABETHTOWN  CLOUDY    49  41  73 CALM      30.22R
WHITEVILLE     MOCLDY    49  41  73 NE5       30.21F
FLORENCE       LGT RAIN  53  48  83 CALM      30.19F
DARLINGTON     CLOUDY    53  49  86 NE6       30.21R
KINGSTREE      RAIN      52  50  93 E3        30.19S
HARTSVILLE     CLOUDY    52  48  87 CALM      30.19S
BENNETTSVILLE  CLOUDY    52  45  76 NE13      30.20S
CONWAY         CLOUDY    52  46  82 NE3       30.19F
GEORGETOWN     CLOUDY    52  50  93 N3        30.19S
MARION         CLOUDY    52  43  71 NE8       30.20S

....................REST OF NORTH CAROLINA......................

.........EASTERN NC.........

CITY           SKY/WX    TMP DP  RH WIND       PRES   REMARKS
CAPE HATTERAS  CLEAR     50  41  71 NE10G18   30.18F
JACKSONVILLE   CLOUDY    46  43  89 NE3       30.22S
MOREHEAD CITY  CLEAR     48  42  80 N8        30.20R
KENANSVILLE    CLOUDY    45  41  87 N5        30.23R
NEW BERN       CLEAR     44  41  89 NE6       30.23R
ELIZABETH CITY CLEAR     44  36  73 N12       30.24S

.........CENTRAL NC.........

CITY           SKY/WX    TMP DP  RH WIND       PRES   REMARKS
RALEIGH DURHAM CLOUDY    45  39  79 NE5       30.23S
ROCKY MOUNT    CLOUDY    49  37  63 N5        30.24R
ROANOKE RAPIDS NOT AVBL
FAYETTEVILLE   CLOUDY    50  39  66 NE7       30.21R
HOFFMAN        NOT AVBL

.........WESTERN NC.........

CITY           SKY/WX    TMP DP  RH WIND       PRES   REMARKS
CHARLOTTE      LGT RAIN  51  46  83 NE6       30.20R
GREENSBORO     CLOUDY    47  42  83 NE7       30.20F
HICKORY        NOT AVBL
BOONE          NOT AVBL
ASHEVILLE      NOT AVBL

.....................REST OF SOUTH CAROLINA.....................

.........EASTERN SC.........

CITY           SKY/WX    TMP DP  RH WIND       PRES   REMARKS
CHARLESTON     LGT RAIN  56  53  90 NE6       30.16F
BEAUFORT MCAS  LGT RAIN  57  55  93 E5        30.15
HILTON HEAD    CLOUDY    59  55  88 CALM      30.16S

.........CENTRAL SC.........

CITY           SKY/WX    TMP DP  RH WIND       PRES   REMARKS
COLUMBIA       LGT RAIN  52  50  93 E8        30.18R FOG
ORANGEBURG     LGT RAIN  53  51  93 NE6       30.18S
SUMTER SHAW    NOT AVBL

.........WESTERN SC.........

CITY           SKY/WX    TMP DP  RH WIND       PRES   REMARKS
GREENVILLE     NOT AVBL
ROCK HILL      LGT RAIN  50  46  86 CALM      30.20S
ANDERSON       CLOUDY    51  50  96 NE6       30.19R
CLEMSON        NOT AVBL
GREENWOOD      RAIN      50  49  96 NE5       30.19S FOG


...................COASTAL AND OFFSHORE REPORTS..................

................LOCAL PIERS AND NC RESERVE................


STATION/POSITION TIME  SKY/WX   TEMP    WIND        PRES    VSBY
                                AIR SEA DIR/SP/G
                 (UTC)          (F)     (DEG/KT/KT) (MB)    (MI)
JOHNY MRCER PIER 0106            53 61   30/ 16/ 18 1021.7
NC RESRV MASNBRO NOT AVBL
OCEAN CREST PIER NOT AVBL
SPRINGMAID  PIER 0106            55      10/  6/ 10 1022.2


................COASTAL AND OFFSHORE BUOYS................


STATION/POSITION TIME  SKY/WX   TEMP    WIND        PRES    VSBY
                                AIR SEA DIR/SP/G
                 (UTC)          (F)     (DEG/KT/KT) (MB)    (MI)
DIMNDSHOAL 41025 0150               74   20/ 21/ 25 1021.2F
CAPE LOOKOUT     0100            50      10/ 13/ 17 1022.5S
ONSLOW BAY 41036 NOT AVBL
ONSLOW BAY 41064 NOT AVBL
ONSLOW BAY 41159 0126               72                N/A
WVE H/P(F/S)=  6/14 SWL H/P/D(F/S/D)=  3/110/14

MASNBO INL 41110 0156               63                N/A
WVE H/P(F/S)=  5/14 SWL H/P/D(F/S/D)=  3/110/14

WILM HARBR 41108 0130            58 63                N/A
WVE H/P(F/S)=  4/15 SWL H/P/D(F/S/D)=  2/140/15

27SE WRITB 41037 0108            57 67   50/ 16/ 23 1021.7R
FRYING PAN 41013 0150            61 74   40/ 17/ 23 1021.0F
WVE H/P(F/S)=  7/15 SWL H/P/D(F/S/D)=  5/120/15

SUNST NRSH 41024 0108            55 60   50/ 16/ 19 1021.8F
CAPRS NRSH 41029 0108            59 62   40/ 12/ 17 1021.0R
EDISTO     41004 0150            65 75   40/ 14/ 19 1020.5R
WVE H/P(F/S)=  7/14 SWL H/P/D(F/S/D)=  5/110/14



..........OFFSHORE BUOYS BEYOND 100 NM OFFSHORE...........
.....IN A TRIANGLE---HAT TO BERMUDA TO BAHAMAS TO HAT.....


STATION/POSITION TIME  SKY/WX   TEMP    WIND        PRES    VSBY
                                AIR SEA DIR/SP/G
                 (UTC)          (F)     (DEG/KT/KT) (MB)    (MI)
150E HAT   41001 0150            64      10/ 17/ 23 1017.9F
WVE H/P(F/S)= 10/14 SWL H/P/D(F/S/D)=  8/ 70/14

W BERMUDA  41048 0150                               1015.1R
WVE H/P(F/S)= 10/10

ATLANTIC S 41049 0150            74 77  330/ 19/ 25 1008.4R
WVE H/P(F/S)= 10/13 SWL H/P/D(F/S/D)=  8/ 60/13

E BAHAMAS  41046 0150            77 80  310/ 12/ 14 1014.9F
WVE H/P(F/S)= 11/13 SWL H/P/D(F/S/D)= 11/ 50/13

NE BAHAMAS 41047 0150            75 79  340/ 10/ 16 1013.7S
WVE H/P(F/S)= 10/14 SWL H/P/D(F/S/D)= 10/ 60/14

120E CANVRL41010 0150            76 80  340/ 10/ 14 1018.8R
WVE H/P(F/S)= 11/15 SWL H/P/D(F/S/D)= 11/ 80/15


END



USA.gov is the U.S. government's official web portal to all federal, state and local government web resources and services.